Location: Zagreb
(45.8000°N, 16.0000°E)
Time: 18:01:04
(UTC+02:00)

UWE-3 - Visible Passes

Search period start: 19 September 2020 00:00
Search period end: 29 September 2020 00:00
Orbit: 584 x 683 km, 97.6° (Epoch: 18 September)

Date Brightness Start Highest point End Pass type
(mag) Time Alt. Az. Time Alt. Az. Time Alt. Az.
19 Sep ? 05:52:41 10° NNE 05:57:14 78° ESE 06:01:51 10° S visible
20 Sep ? 04:39:21 10° NE 04:41:56 15° E 04:44:30 10° SE visible
21 Sep ? 04:59:57 10° NE 05:03:39 24° E 05:07:22 10° SSE visible
22 Sep ? 05:21:02 10° NNE 05:25:19 38° E 05:29:38 10° SSE visible
23 Sep ? 05:42:21 10° NNE 05:46:54 62° E 05:51:31 10° S visible
24 Sep ? 04:29:44 10° ENE 04:31:29 12° E 04:33:14 10° ESE visible
24 Sep ? 06:03:50 10° N 06:08:26 81° WNW 06:13:05 10° SSW visible
25 Sep ? 04:49:54 10° NE 04:53:15 19° E 04:56:36 10° SE visible
26 Sep ? 05:10:50 10° NNE 05:14:57 31° E 05:19:04 10° SSE visible
27 Sep ? 05:32:03 10° NNE 05:36:34 50° E 05:41:06 10° S visible
28 Sep ? 05:53:28 10° NNE 05:58:07 82° ESE 06:02:48 10° S visible
